Location: Newark
(33.6333°S, 78.8500°W)
Time: 14:13:09
(UTC+00:00)

Vanguard 2 Rocket - All Passes

Search period start: 17 September 2019 00:00
Search period end: 27 September 2019 00:00
Orbit: 554 x 3327 km, 32.9° (Epoch: 16 September)

Date Brightness Start Highest point End Pass type
(mag) Time Alt. Az. Time Alt. Az. Time Alt. Az.
17 Sep - 09:10:44 10° N 09:21:47 28° NE 09:36:25 10° E visible
17 Sep - 11:21:17 10° NW 11:37:17 63° NNE 11:57:18 10° ESE daylight
17 Sep - 13:36:29 10° WNW 13:56:02 86° N 14:14:58 10° E daylight
17 Sep - 15:54:39 10° W 16:15:25 82° NNW 16:30:38 10° ENE daylight
17 Sep - 18:14:30 10° WSW 18:32:06 50° NW 18:43:21 10° NE daylight
17 Sep - 20:39:00 10° W 20:45:01 14° NW 20:49:57 10° NNW daylight
18 Sep - 08:14:07 10° NNE 08:21:39 17° NE 08:31:02 10° E visible
18 Sep - 10:21:47 10° NW 10:35:44 51° NE 10:54:47 10° ESE visible
18 Sep - 12:35:26 10° WNW 12:53:24 81° NNE 13:13:31 10° E daylight
18 Sep - 14:52:28 10° W 15:13:02 87° N 15:30:14 10° E daylight
18 Sep - 17:11:31 10° WSW 17:31:06 63° NNW 17:44:18 10° NE daylight
18 Sep - 19:33:11 10° W 19:45:26 25° NW 19:54:07 10° N daylight
19 Sep - 09:23:01 10° NNW 09:34:50 39° NE 09:51:39 10° E visible
19 Sep - 11:35:00 10° WNW 11:51:04 74° NNE 12:11:34 10° E daylight
19 Sep - 13:50:45 10° W 14:10:20 88° N 14:29:17 10° E daylight
19 Sep - 16:08:55 10° W 16:29:27 74° NNW 16:44:40 10° ENE daylight
19 Sep - 18:29:08 10° W 18:45:21 38° NW 18:56:23 10° NNE daylight
20 Sep - 08:25:09 10° N 08:34:34 26° NE 08:47:40 10° E visible
20 Sep - 10:35:11 10° NW 10:49:15 63° NNE 11:09:09 10° ESE visible
20 Sep - 12:49:36 10° W 13:07:36 87° N 13:27:49 10° E daylight
20 Sep - 15:06:45 10° W 15:27:14 82° NNW 15:44:25 10° ENE daylight
20 Sep - 17:25:52 10° WSW 17:44:38 51° NW 17:57:45 10° NE daylight
20 Sep - 19:49:54 10° W 19:58:21 16° NW 20:05:07 10° NNW daylight
21 Sep - 07:29:00 10° NNE 07:34:49 15° NE 07:42:00 10° E visible
21 Sep - 09:36:01 10° NW 09:48:05 50° NE 10:06:16 10° ESE visible
21 Sep - 11:49:00 10° WNW 12:05:06 82° NNE 12:25:49 10° E daylight
21 Sep - 14:05:04 10° W 14:24:37 86° N 14:43:34 10° ENE daylight
21 Sep - 16:23:11 10° WSW 16:43:15 63° NNW 16:58:24 10° NE daylight
21 Sep - 18:44:22 10° W 18:58:23 27° NW 19:08:42 10° N daylight
22 Sep - 08:37:31 10° NNW 08:47:36 37° NE 09:02:54 10° E visible
22 Sep - 10:48:58 10° WNW 11:03:03 74° NNE 11:23:24 10° E daylight
22 Sep - 13:03:52 10° W 13:21:53 88° N 13:42:07 10° E daylight
22 Sep - 15:21:01 10° W 15:41:15 73° NNW 15:58:23 10° ENE daylight
22 Sep - 17:40:30 10° W 17:57:53 39° NW 18:10:41 10° NNE daylight
23 Sep - 07:39:56 10° N 07:47:44 24° NE 07:58:51 10° E visible
23 Sep - 09:49:30 10° NW 10:01:37 63° NNE 10:20:37 10° ESE visible
23 Sep - 12:03:12 10° W 12:19:18 87° N 12:40:08 10° E daylight
23 Sep - 14:19:21 10° W 14:38:49 81° NNW 14:57:43 10° ENE daylight
23 Sep - 16:37:33 10° WSW 16:56:45 52° NW 17:11:44 10° NE daylight
23 Sep - 19:00:57 10° W 19:11:18 18° NW 19:19:43 10° NNW daylight
24 Sep - 06:44:32 10° NNE 06:48:20 12° NE 06:52:49 10° ENE visible
24 Sep - 08:50:36 10° NW 09:00:52 49° NE 09:17:32 10° ESE visible
24 Sep - 11:03:01 10° WNW 11:17:06 82° NNE 11:37:39 10° E daylight
24 Sep - 13:18:11 10° W 13:36:11 86° N 13:56:22 10° ENE daylight
24 Sep - 15:35:18 10° WSW 15:55:02 63° NNW 16:12:02 10° NE daylight
24 Sep - 17:55:45 10° W 18:10:56 29° NW 18:22:53 10° N daylight
25 Sep - 07:52:21 10° NNW 08:00:48 34° NE 08:14:07 10° E visible
25 Sep - 10:03:21 10° WNW 10:15:27 74° NNE 10:34:52 10° E visible
25 Sep - 12:17:29 10° W 12:33:36 88° N 12:54:25 10° E daylight
25 Sep - 14:33:38 10° W 14:52:50 73° NNW 15:11:37 10° ENE daylight
25 Sep - 16:52:13 10° W 17:10:02 40° NW 17:24:33 10° NNE daylight
26 Sep - 06:55:02 10° N 07:01:18 21° NE 07:10:10 10° E visible
26 Sep - 09:04:10 10° NW 09:14:27 62° NNE 09:31:52 10° ESE visible
26 Sep - 11:17:15 10° W 11:31:19 87° N 11:51:57 10° E daylight
26 Sep - 13:32:28 10° W 13:50:22 80° NNW 14:10:28 10° ENE daylight
26 Sep - 15:49:42 10° WSW 16:08:34 51° NW 16:25:15 10° NE daylight
26 Sep - 18:12:16 10° W 18:23:55 19° NW 18:33:48 10° NNW daylight
